SL-16 R/B

Satellite information

Favourite Embed

Satellite Type and Status

ROCKET BODYIN ORBIT

Key statistics

Satellite SL-16 R/B at a glance.

Uptime

11776

Days in orbit

Revolutions

≈ 14.2

Per day

Orbit

LEO

Low Earth Orbit

Inclination

71.0

Latest

Satellite identification and parameters

Extended collection of information and parameters for SL-16 R/B.

Object identification

Identified? True

Debris? False

Object name: SL-16 R/B

International designator: 1993-059B

Object number (NORAD): 22803

Object ID (CCSDS): 22803

Country: COMMONWEALTH OF INDEPENDENT STATES (CIS)

Current information (Y/N): Y

RCS size: LARGE

Orbital parameters

Period: 101.608 minutes

Inclination: 70.9893 deg

SMA: 7212.928 km

Apoapsis: 847.755 km

Periapsis: 821.832 km

RAAN: 195.991 deg

Eccentricy: 0.00179699

Argument of periapsis: 336.6382 deg

Mean anomaly: 23.3923 deg

Mean motion: 14.17213722 rev/day

Mean motion (dot): -0.00000095 rev/day2

B* drag term: -0.000023062178 1/REarth

Two-line elements (TLE)

Creation date: Dec. 12, 2025, 10:14 a.m.

Reference frame: TEME

Reference center: EARTH

Epoch: Dec. 12, 2025, 12:37 a.m. UTC

TLE line 0: 0 SL-16 R/B

TLE line 1: 1 22803U 93059B 25346.02630430 -.00000095 00000-0 -23062-4 0 9992

TLE line 2: 2 22803 70.9893 195.9910 0017970 336.6382 23.3923 14.17213722667115

Live tracking on map

Real-time ground track for satellite SL-16 R/B.

In-orbit conjunctions

A list of the most updated potential collisions computed for object SL-16 R/B.

Target Orbit TCA Probability of collision Miss distance Type
FENGYUN 1C DEB SSO 2024-10-01 21:38:30 0.001142297 76.0 (m) DEBRIS
NOAA 16 DEB SSO 2024-09-02 17:25:44 0.000180735 146.0 (m) DEBRIS
COSMOS 1275 DEB LEO 2024-08-29 12:23:38 0.000112898 920.0 (m) DEBRIS
DELTA 1 DEB SSO 2024-07-25 13:33:02 0.0001056366 363.0 (m) DEBRIS

Associated space launch

Second generation ELING satellite

SL-16 R/B was lifted into orbit during the mission ‘Zenit-2 | Tselina-2 14’, on board a Zenit-2 space rocket.

The launch took place on Sept. 16, 1993, 7:36 a.m. from 45/1.

For more information about the launch, click the button.

Launch to space Zenit-2 | Tselina-2 14
Zenit-2 | Tselina-2 14

Agency: N/A

Status: Launch Successful

Launch date: Sept. 16, 1993, 7:36 a.m. UTC

Rocket: Zenit-2

Launch pad: 45/1

Location: Baikonur Cosmodrome, Republic of Kazakhstan

...

Latest news about this satellite

There are no fresh news available about this satellite. Check back as we update our databases every day.


Newsletter sign-up

Weekly statistics, charts and insights to help you stay on top of the space industry.